Weather History for Wisconsin Rapids, WI

Change the Weather History Date:

Saturday, May 3, 2014

  Actual Average Record
Temperature  
Mean Temperature 50 °F -  
Max Temperature 60 °F 63 °F 91 °F (1949)
Min Temperature 39 °F 37 °F 23 °F (2004)
Degree Days  
Heating Degree Days 16    
Moisture  
Dew Point 36 °F    
Average Humidity 66    
Maximum Humidity 97    
Minimum Humidity 30    
Precipitation  
Precipitation 0.00 in - - ()
Sea Level Pressure  
Sea Level Pressure 29.76 in    
Wind  
Wind Speed 7 mph (WNW)    
Max Wind Speed 22 mph    
Max Gust Speed 29 mph    
Visibility 9 miles    
Events      
Averages and records for this station are not official NWS values.
T = Trace of Precipitation, MM = Missing Value Source: NWS Daily Summary

Daily Weather History Graph

Daily Weather History Graph

Search for Another Location

Airport:

Trip Planner

Search our weather history database for the weather conditions in past years. The results will help you decide how hot, cold, wet, or windy it might be!

Date:

Astronomy

May. 03, 2014 Rise Set
Actual Time 5:47 AM CDT 8:05 PM CDT
Civil Twilight 5:15 AM CDT 8:38 PM CDT
Nautical Twilight 4:35 AM CDT 9:18 PM CDT
Astronomical Twilight 3:50 AM CDT 10:03 PM CDT
Moon 9:15 AM CDT (5/3) No Moon Set
Length of Visible Light 15h 23m
Length of Day
14h 18m
Waxing Crescent, 20% of the Moon is Illuminated
May 3
Waxing Crescent
May 6
First Quarter
May 14
Full
May 21
Last Quarter
May 28
New

Hourly Weather History & Observations

Time (CDT) Temp. Windchill Dew Point Humidity Pressure Visibility Wind Dir Wind Speed Gust Speed Precip Events Conditions
12:54 AM 44.1 °F - 43.0 °F 96% 29.67 in 6.0 mi Calm Calm - N/A   Overcast
1:54 AM 44.1 °F - 43.0 °F 96% 29.66 in 2.5 mi Calm Calm - N/A   Overcast
2:02 AM 44.1 °F - 43.0 °F 96% 29.65 in 1.5 mi Calm Calm - N/A   Overcast
2:08 AM 43.0 °F - 42.1 °F 97% 29.65 in 3.0 mi Calm Calm - N/A   Overcast
2:54 AM 44.1 °F 40.1 °F 42.1 °F 93% 29.66 in 10.0 mi West 6.9 mph - N/A   Overcast
3:54 AM 41.0 °F 37.1 °F 39.9 °F 96% 29.67 in 10.0 mi WSW 5.8 mph - N/A   Clear
5:54 AM 39.9 °F 34.5 °F 39.0 °F 97% 29.69 in 10.0 mi West 8.1 mph - N/A   Clear
6:54 AM 42.1 °F 36.1 °F 39.0 °F 89% 29.71 in 10.0 mi WNW 10.4 mph - N/A   Clear
7:54 AM 44.1 °F 38.6 °F 39.9 °F 85% 29.74 in 10.0 mi WNW 10.4 mph - N/A   Partly Cloudy
8:46 AM 46.0 °F 40.6 °F 39.0 °F 76% 29.74 in 10.0 mi WNW 11.5 mph - N/A   Mostly Cloudy
8:54 AM 46.0 °F 40.2 °F 39.0 °F 76% 29.76 in 10.0 mi WNW 12.7 mph - N/A   Mostly Cloudy
9:54 AM 46.9 °F - 37.0 °F 68% 29.77 in 10.0 mi NW 18.4 mph 28.8 mph N/A   Scattered Clouds
10:14 AM 48.0 °F - 37.0 °F 66% 29.75 in 10.0 mi WNW 16.1 mph 21.9 mph N/A   Mostly Cloudy
10:23 AM 50.0 °F - 37.9 °F 63% 29.75 in 10.0 mi NW 11.5 mph - N/A   Partly Cloudy
10:54 AM 51.1 °F - 37.0 °F 59% 29.77 in 10.0 mi WNW 15.0 mph 20.7 mph N/A   Partly Cloudy
11:54 AM 54.0 °F - 36.0 °F 51% 29.77 in 10.0 mi NW 15.0 mph 24.2 mph N/A   Partly Cloudy
12:54 PM 57.0 °F - 30.0 °F 36% 29.78 in 10.0 mi NW 21.9 mph 28.8 mph N/A   Partly Cloudy
1:54 PM 55.9 °F - 30.9 °F 39% 29.78 in 10.0 mi NW 15.0 mph 25.3 mph N/A   Scattered Clouds
3:54 PM 60.1 °F - 30.9 °F 33% 29.79 in 10.0 mi WNW 16.1 mph 25.3 mph N/A   Scattered Clouds
4:54 PM 60.1 °F - 28.0 °F 30% 29.80 in 10.0 mi WNW 19.6 mph 28.8 mph N/A   Partly Cloudy
5:54 PM 57.0 °F - 27.0 °F 32% 29.81 in 10.0 mi WNW 13.8 mph - N/A   Mostly Cloudy
6:54 PM 55.9 °F - 30.0 °F 37% 29.82 in 10.0 mi NW 9.2 mph - N/A   Overcast
7:54 PM 54.0 °F - 30.9 °F 41% 29.84 in 10.0 mi NW 8.1 mph - N/A   Mostly Cloudy
8:54 PM 48.9 °F - 30.9 °F 50% 29.85 in 10.0 mi WNW 5.8 mph - N/A   Partly Cloudy
9:54 PM 42.1 °F - 33.1 °F 70% 29.86 in 10.0 mi Calm Calm - N/A   Clear
10:54 PM 44.1 °F 40.1 °F 32.0 °F 63% 29.87 in 10.0 mi WSW 6.9 mph - N/A   Clear
11:54 PM 46.9 °F - 30.0 °F 52% 29.88 in 10.0 mi West 8.1 mph - N/A   Overcast